Regional Weather Roundup
Issued by NWS

Home | Current Version | Previous Version | Text Only | Print | Product List | Glossary On
Versions: 1 2 3 4 5 6 7 8 9 10 11 12 13 14 15 16 17 18 19 20 21 22 23 24 25 26 27 28 29 30 31 32 33 34 35 36 37 38 39 40 41 42 43 44 45 46 47 48 49 50
000
ASUS43 KTOP 210608
RWRKS

WEATHER ROUNDUP FOR KANSAS
NATIONAL WEATHER SERVICE GOODLAND KS
1200 AM CST FRI NOV 21 2014

NOTE:  "FAIR" INDICATES FEW OR NO CLOUDS BELOW 12,000 FEET WITH NO
SIGNIFICANT WEATHER AND/OR OBSTRUCTIONS TO VISIBILITY.

KSZ001>006-013>018-027>032-041>047-210700-
NORTHWEST KANSAS

CITY           SKY/WX    TMP DP  RH WIND       PRES   REMARKS
GOODLAND       CLOUDY    32  23  69 S10       30.04S WCI  24
6HR MIN TEMP:  27; 6HR MAX TEMP:  34;

HAYS           PTCLDY    25  12  58 E7        30.14R
HILL CITY      PTCLDY    23  17  78 MISG      30.13R
6HR MIN TEMP:  21; 6HR MAX TEMP:  37;

RUSSELL        PTCLDY    30  21  69 SE9       30.14R
6HR MIN TEMP:  29; 6HR MAX TEMP:  39;

$$

KSZ061>065-074>080-084>089-210700-
SOUTHWEST KANSAS

CITY           SKY/WX    TMP DP  RH WIND       PRES   REMARKS
DODGE CITY     PTCLDY    30  24  78 SE6       30.10S
6HR MIN TEMP:  27; 6HR MAX TEMP:  40;

ELKHART          N/A     28  22  78 SE7         N/A
GARDEN CITY    MOCLDY    31  27  85 SE5       30.08S
6HR MIN TEMP:  29; 6HR MAX TEMP:  43;

GREAT BEND     PTCLDY    32  19  59 E7        30.15R
LIBERAL        MOCLDY    34  27  75 E6        30.08F
PRATT          CLEAR     30  25  80 E6        30.14S
$$

KSZ066>073-081>083-090>101-210700-
SOUTHEAST KANSAS

CITY           SKY/WX    TMP DP  RH WIND       PRES   REMARKS
CHANUTE        PTCLDY    34  22  61 E9        30.20R
6HR MIN TEMP:  34; 6HR MAX TEMP:  39;

COFFEYVILLE    PTCLDY    33  25  72 NE6       30.18S
6HR MIN TEMP:  33; 6HR MAX TEMP:  40;

HUTCHINSON     PTCLDY    33  22  63 E8        30.16S
6HR MIN TEMP:  33; 6HR MAX TEMP:  38;

MEDICINE LODGE   N/A     36  24  62 E9        30.12S
NEWTON         PTCLDY    28  19  69 E8        30.17F
PARSONS        MOCLDY    36  24  62 E8        30.19R
6HR MIN TEMP:  36; 6HR MAX TEMP:  41;

WICHITA INTL   PTCLDY    35  23  61 E8        30.15S
6HR MIN TEMP:  35; 6HR MAX TEMP:  45;

WICHITA JABRA  CLEAR     29  23  78 E7        30.16S
6HR MIN TEMP:  29; 6HR MAX TEMP:  40;

WICHITA MCCONL CLEAR     34  23  63 E10       30.15S WCI  26
WINFIELD       CLEAR     36  24  62 E9        30.15S
6HR MIN TEMP:  36; 6HR MAX TEMP:  44;

$$

KSZ007>012-019>026-033>040-048>060-102>105-210700-
NORTHEAST KANSAS

CITY           SKY/WX    TMP DP  RH WIND       PRES   REMARKS
CONCORDIA      CLEAR     21  16  81 SE7       30.20R
6HR MIN TEMP:  21; 6HR MAX TEMP:  32;

EMPORIA        FAIR      26  18  71 E8        30.21S
6HR MIN TEMP:  24; 6HR MAX TEMP:  34;

LAWRENCE       CLEAR     27  17  66 E7        30.27R
6HR MIN TEMP:  27; 6HR MAX TEMP:  30;

MANHATTAN      CLEAR     24  17  74 NE7       30.23S
6HR MIN TEMP:  23; 6HR MAX TEMP:  33;

MARYSVILLE     PTCLDY    23  19  86 SE9       30.23R
OLATHE IND     CLEAR     27  17  66 E7        30.25S
6HR MIN TEMP:  27; 6HR MAX TEMP:  32;

OLATHE EXE     CLEAR     27  17  66 E8        30.24S
6HR MIN TEMP:  27; 6HR MAX TEMP:  34;

SALINA         CLEAR     30  18  60 E5        30.20S
6HR MIN TEMP:  29; 6HR MAX TEMP:  41;

TOPEKA BILLARD CLEAR     27  17  66 E7        30.26S
6HR MIN TEMP:  27; 6HR MAX TEMP:  33;

TOPEKA FORBES  CLEAR     27  17  66 E6        30.24S
6HR MIN TEMP:  27; 6HR MAX TEMP:  35;

$$


USA.gov is the U.S. government's official web portal to all federal, state and local government web resources and services.